Location: Alberta Star Party
(51.6612°N, 112.9089°W)
Time: 06:58:54
(UTC-06:00)

Amateur Radio Satellites - All Passes

Search period start: 25 May 2016 06:28
Search period end: 26 May 2016 06:28
Location: Alberta Star Party, 51.6612°N, 112.9089°W

Satellite Date Start Highest point End Downlink Frequencies (MHz)
Time Altitude Azimuth
YUBILEINY 25 May 06:43:59 06:50:00 21° 286° (WNW) 06:56:03 435.215
GONETS M04 25 May 06:44:40 06:46:08 10° 31° (NNE) 06:47:36
HORYU 2 25 May 06:51:12 06:55:39 74° 287° (WNW) 07:00:04 437.375
CUBESAT XI-V 25 May 06:51:14 06:55:27 33° 265° (W) 06:59:43 437.345
CUTE-I 25 May 06:52:08 06:56:08 21° 90° (E) 07:00:07 437.470
RS-15 25 May 06:53:04 06:57:06 12° 272° (W) 07:01:08 29.354- 29.394
SO-50 25 May 06:54:26 06:57:44 18° 4° (N) 07:01:01 436.795
STRAND 1 25 May 07:00:19 07:05:05 42° 65° (ENE) 07:09:54 437.568
AO-85 25 May 07:15:12 07:19:46 28° 116° (ESE) 07:24:14 145.980
NOAA 18 25 May 07:19:41 07:24:48 39° 98° (E) 07:29:54 137.9125
AO-7 25 May 07:28:53 07:36:21 38° 309° (NW) 07:43:49 29.400- 29.500
Cosmos 2504 25 May 07:35:25 07:42:15 30° 279° (W) 07:49:24 435.465 / 435.565
BRITE-PL 25 May 07:36:39 07:41:56 54° 99° (E) 07:46:47 437.365/2234.400
DOVE 4 25 May 07:42:17 07:44:55 15° 86° (E) 07:47:28 437.250
Cubesat XI-IV 25 May 07:44:09 07:49:24 51° 100° (E) 07:54:37 437.490
Cosmos 2491 25 May 07:45:19 07:52:31 27° 305° (NW) 07:59:45 435.465 / 435.565
NOAA 15 25 May 07:49:33 07:54:54 77° 105° (ESE) 08:00:12 137.62
LilacSat-2 25 May 07:51:40 07:55:26 60° 101° (ESE) 07:59:10 437.200
HO-68 25 May 08:03:03 08:06:47 15° 83° (E) 08:10:31 435.675
PRISM 25 May 08:07:21 08:11:05 33° 65° (ENE) 08:14:52 437.425
GOMX 1 25 May 08:15:50 08:20:43 59° 100° (E) 08:25:13 467.674
HORYU 2 25 May 08:29:31 08:31:28 13° 307° (NW) 08:33:25 437.375
Cosmos 2499 25 May 08:31:19 08:37:28 22° 52° (NE) 08:43:51 435.465 / 435.565
CUTE-I 25 May 08:31:23 08:36:44 72° 289° (WNW) 08:42:04 437.470
CINEMA 3 25 May 08:33:15 08:35:38 15° 87° (E) 08:37:57 145.822/145.860
AIST 1 25 May 08:33:56 08:37:51 31° 69° (ENE) 08:41:45
SO-50 25 May 08:35:24 08:39:40 30° 29° (NNE) 08:43:49 436.795
GONETS M04 25 May 08:38:49 08:46:37 34° 61° (ENE) 08:54:19
STRAND 1 25 May 08:39:46 08:44:22 34° 264° (W) 08:49:01 437.568
AUBIESAT-1 25 May 08:43:04 08:43:28 10° 94° (E) 08:43:51 437.475
M-CUBED/EXP-1 PRIME 25 May 08:46:05 08:47:50 14° 96° (E) 08:49:34 437.505
AO-85 25 May 08:54:32 08:59:59 70° 315° (NW) 09:05:13 145.980
NOAA 18 25 May 09:00:25 09:05:32 41° 297° (WNW) 09:10:37 137.9125
BRITE-PL 25 May 09:15:34 09:20:06 28° 300° (WNW) 09:24:22 437.365/2234.400
CANX-2 25 May 09:16:49 09:20:53 40° 97° (E) 09:24:56 2200.000
DOVE 4 25 May 09:18:42 09:23:18 74° 286° (WNW) 09:27:35 437.250
AO-7 25 May 09:22:39 09:26:54 15° 334° (NNW) 09:31:09 29.400- 29.500
Cubesat XI-IV 25 May 09:24:38 09:29:16 31° 300° (WNW) 09:33:55 437.490
SEEDS 25 May 09:25:10 09:29:01 33° 96° (E) 09:32:53 437.485
LilacSat-2 25 May 09:26:59 09:29:21 16° 300° (WNW) 09:31:43 437.200
NOAA 15 25 May 09:30:09 09:34:09 22° 305° (NW) 09:38:09 137.62
Oscar 11 25 May 09:38:56 09:41:04 13° 87° (E) 09:43:11 145.826/435.025
CUBEBUG 2 25 May 09:40:24 09:43:43 22° 93° (E) 09:47:01 437.445
PRISM 25 May 09:42:43 09:46:24 31° 264° (W) 09:50:10 437.425
CUTE 1.7 + AOD 2 25 May 09:44:31 09:48:47 67° 101° (ESE) 09:53:03 437.475
ZACube-1 25 May 09:47:40 09:49:51 14° 88° (E) 09:52:03 437.345
HO-68 25 May 09:48:47 09:55:57 66° 104° (ESE) 10:03:05 435.675
UNISAT 6 25 May 09:53:52 09:57:30 26° 63° (ENE) 10:01:06 437.425
GOMX 1 25 May 09:54:33 09:58:24 23° 301° (WNW) 10:02:03 467.674
TIGRISAT 25 May 10:02:11 10:05:58 29° 64° (ENE) 10:09:42 435.000
CINEMA 3 25 May 10:09:06 10:13:21 70° 286° (WNW) 10:17:27 145.822/145.860
AIST 1 25 May 10:11:33 10:15:28 33° 270° (W) 10:19:22
CUTE-I 25 May 10:12:50 10:15:56 16° 310° (NW) 10:19:02 437.470
POPSAT HIP 1 25 May 10:13:57 10:14:52 11° 52° (NE) 10:15:48 437.405
UWE-3 25 May 10:14:23 10:18:12 34° 96° (E) 10:22:01 435.000/436.395/437.385
QB50P1 25 May 10:14:26 10:15:32 11° 53° (NE) 10:16:37 145.935-145.965
AUBIESAT-1 25 May 10:15:08 10:18:30 70° 293° (WNW) 10:21:47 437.475
QB50P2 25 May 10:15:21 10:16:49 12° 53° (NE) 10:18:17 145.880/145.840
SO-50 25 May 10:15:50 10:20:37 75° 231° (SW) 10:25:13 436.795
COMPASS 1 25 May 10:16:07 10:20:22 76° 102° (ESE) 10:24:35 437.405
POLYITAN 1 25 May 10:17:43 10:19:15 12° 54° (NE) 10:20:46 437.675
M-CUBED/EXP-1 PRIME 25 May 10:19:31 10:22:48 50° 296° (WNW) 10:25:59 437.505
AAUSAT CUBESAT 2 25 May 10:21:21 10:25:34 71° 103° (ESE) 10:29:45 437.432
Cosmos 2499 25 May 10:23:47 10:32:12 72° 76° (ENE) 10:41:02 435.465 / 435.565
FUNcube-1 25 May 10:26:11 10:29:51 30° 95° (E) 10:33:33 145.935
NANOSAT C BR1 25 May 10:32:53 10:35:18 15° 56° (ENE) 10:37:42 145.865
PCSat 25 May 10:34:19 10:38:29 23° 109° (ESE) 10:42:40 145.827
ANTELSAT 25 May 10:34:23 10:38:41 59° 71° (ENE) 10:42:55 437.575/2403.000
GONETS M04 25 May 10:35:35 10:44:15 72° 266° (W) 10:52:52
AO-85 25 May 10:36:52 10:41:19 26° 337° (NNW) 10:45:35 145.980
O/OREOS (USA 219) 25 May 10:45:40 10:49:51 36° 108° (ESE) 10:54:01 437.305
JAS-2 25 May 10:50:18 10:54:42 17° 40° (NE) 10:59:09 435.910
CANX-2 25 May 10:53:01 10:56:36 27° 296° (WNW) 11:00:13 2200.000
DOVE 4 25 May 10:58:10 11:00:09 13° 308° (NW) 11:02:04 437.250
SEEDS 25 May 11:00:56 11:04:43 32° 294° (WNW) 11:08:30 437.485
DUCHIFAT 1 25 May 11:11:14 11:14:52 29° 64° (ENE) 11:18:32 145.980
DELFI C3 25 May 11:13:23 11:17:21 52° 100° (E) 11:21:17 145.870
Oscar 11 25 May 11:13:26 11:17:48 83° 284° (WNW) 11:22:09 145.826/435.025
CUBEBUG 2 25 May 11:16:37 11:20:34 44° 291° (WNW) 11:24:31 437.445
CUSAT 1 25 May 11:20:32 11:24:31 17° 73° (ENE) 11:28:51 437.405
CUTE 1.7 + AOD 2 25 May 11:21:18 11:24:13 18° 301° (WNW) 11:27:07 437.475
ZACube-1 25 May 11:22:31 11:26:41 75° 286° (WNW) 11:30:53 437.345
UNISAT 6 25 May 11:29:56 11:34:05 42° 262° (W) 11:38:12 437.425
HO-68 25 May 11:36:59 11:43:19 35° 305° (NW) 11:49:39 435.675
TIGRISAT 25 May 11:38:32 11:42:35 37° 263° (W) 11:46:37 435.000
BUGSAT 1 25 May 11:40:21 11:43:59 29° 64° (ENE) 11:47:36 437.445
POPSAT HIP 1 25 May 11:45:39 11:49:51 64° 72° (ENE) 11:54:04 437.405
QB50P1 25 May 11:46:18 11:50:31 66° 72° (ENE) 11:54:45 145.935-145.965
QB50P2 25 May 11:47:39 11:51:53 71° 73° (ENE) 11:56:08 145.880/145.840
CINEMA 3 25 May 11:48:31 11:49:41 11° 307° (NW) 11:50:51 145.822/145.860
POLYITAN 1 25 May 11:50:06 11:54:20 73° 73° (ENE) 11:58:34 437.675
UWE-3 25 May 11:51:01 11:54:39 29° 295° (WNW) 11:58:16 435.000/436.395/437.385
COMPASS 1 25 May 11:52:50 11:55:26 16° 302° (WNW) 11:58:01 437.405
HUMSAT D 25 May 11:53:24 11:57:31 64° 101° (E) 12:01:40 437.325/437.525
AAUSAT CUBESAT 2 25 May 11:57:53 12:00:35 17° 302° (WNW) 12:03:17 437.432
SO-50 25 May 11:58:03 12:00:17 13° 251° (WSW) 12:02:29 436.795
AISAT 25 May 12:01:52 12:04:09 14° 87° (E) 12:06:25 437.250
FUNcube-1 25 May 12:02:24 12:06:10 34° 293° (WNW) 12:09:56 145.935
NANOSAT C BR1 25 May 12:06:14 12:10:29 84° 257° (WSW) 12:14:44 145.865
ANTELSAT 25 May 12:12:44 12:15:47 18° 270° (W) 12:18:49 437.575/2403.000
BEESAT 3 25 May 12:14:03 12:15:20 11° 111° (ESE) 12:16:37 437.485
PCSat 25 May 12:15:55 12:21:21 76° 310° (NW) 12:26:50 145.827
Cosmos 2499 25 May 12:17:34 12:24:46 33° 278° (W) 12:32:15 435.465 / 435.565
AO-85 25 May 12:19:50 12:23:26 18° 1° (N) 12:26:52 145.980
UKube-1 25 May 12:23:48 12:26:15 15° 89° (E) 12:28:41 .
O/OREOS (USA 219) 25 May 12:25:02 12:29:16 36° 309° (NW) 12:33:29 437.305
ESTCUBE 1 25 May 12:28:13 12:32:21 32° 95° (E) 12:36:26 437.505/2401.250
JAS-2 25 May 12:30:50 12:37:56 49° 62° (ENE) 12:45:26 435.910
50 SAT 25 May 12:31:12 12:34:18 24° 94° (E) 12:37:23 437.505
DANDE 25 May 12:31:36 12:36:07 24° 79° (E) 12:41:31 436.750
GONETS M04 25 May 12:34:06 12:39:28 18° 289° (WNW) 12:44:50
DUCHIFAT 1 25 May 12:46:35 12:50:30 36° 263° (W) 12:54:26 145.980
DELFI C3 25 May 12:48:56 12:51:55 20° 299° (WNW) 12:54:53 145.870
Oscar 11 25 May 12:51:08 12:53:17 14° 305° (NW) 12:55:25 145.826/435.025
CUSAT 1 25 May 12:58:38 13:05:01 68° 96° (E) 13:12:46 437.405
ZACube-1 25 May 13:00:51 13:02:17 12° 306° (NW) 13:03:43 437.345
AO-7 25 May 13:00:51 13:05:36 17° 29° (NNE) 13:10:22 29.400- 29.500
CUBEBUG 1 25 May 13:00:55 13:05:11 46° 99° (E) 13:09:23 437.445
VELOX 1 25 May 13:01:04 13:05:21 44° 99° (E) 13:09:35 145.980
DX 1 25 May 13:04:34 13:08:43 40° 98° (E) 13:12:50 434.975-435.025
Oscar 19 25 May 13:06:40 13:11:28 39° 64° (ENE) 13:16:17 437.125/150
BEESAT 2 25 May 13:09:38 13:12:48 23° 117° (ESE) 13:16:00 435.950
Gurwin Techsat 1B 25 May 13:10:09 13:14:11 23° 56° (NE) 13:18:14 435.225
BUGSAT 1 25 May 13:15:24 13:19:18 36° 263° (W) 13:23:11 437.445
POPSAT HIP 1 25 May 13:23:20 13:26:05 17° 270° (W) 13:28:49 437.405
QB50P1 25 May 13:24:05 13:26:45 16° 271° (W) 13:29:26 145.935-145.965
QB50P2 25 May 13:25:42 13:28:12 15° 271° (W) 13:30:41 145.880/145.840
HO-68 25 May 13:26:50 13:29:03 12° 329° (NNW) 13:31:16 435.675
POLYITAN 1 25 May 13:28:13 13:30:39 15° 272° (W) 13:33:04 437.675
HUMSAT D 25 May 13:29:58 13:32:45 18° 301° (WNW) 13:35:34 437.325/437.525
AISAT 25 May 13:36:47 13:41:15 83° 288° (WNW) 13:45:40 437.250
SPROUT 25 May 13:39:30 13:43:39 47° 99° (E) 13:47:45 437.525
ITAMSAT 1 25 May 13:44:15 13:47:51 19° 54° (NE) 13:51:28 435.822/435.867
NANOSAT C BR1 25 May 13:45:48 13:46:55 11° 274° (W) 13:48:02 145.865
BEESAT 3 25 May 13:48:24 13:52:20 78° 130° (SE) 13:56:19 437.485
Cosmos 2491 25 May 13:52:58 13:58:55 19° 47° (NE) 14:04:49 435.465 / 435.565
UKube-1 25 May 13:58:30 14:02:51 76° 288° (WNW) 14:07:09 .
AO-85 25 May 14:01:09 14:05:29 28° 26° (NNE) 14:09:31 145.980
PCSat 25 May 14:01:11 14:05:38 25° 333° (NNW) 14:10:05 145.827
50 SAT 25 May 14:04:44 14:08:07 33° 293° (WNW) 14:11:30 437.505
ESTCUBE 1 25 May 14:05:01 14:09:12 36° 295° (WNW) 14:13:22 437.505/2401.250
O/OREOS (USA 219) 25 May 14:09:38 14:10:03 10° 332° (NNW) 14:10:28 437.305
DANDE 25 May 14:12:20 14:17:58 77° 285° (WNW) 14:25:24 436.750
TISAT 1 25 May 14:13:08 14:16:54 32° 96° (E) 14:20:38 437.305
JAS-2 25 May 14:15:48 14:22:55 50° 264° (W) 14:30:34 435.910
CUBEBUG 1 25 May 14:37:38 14:41:15 25° 298° (WNW) 14:44:51 437.445
VELOX 1 25 May 14:37:56 14:41:39 27° 298° (WNW) 14:45:21 145.980
DX 1 25 May 14:41:03 14:44:47 28° 298° (WNW) 14:48:30 434.975-435.025
CUSAT 1 25 May 14:41:49 14:47:52 34° 301° (WNW) 14:54:52 437.405
Oscar 19 25 May 14:46:00 14:50:50 38° 264° (W) 14:55:41 437.125/150
BEESAT 2 25 May 14:46:27 14:50:23 56° 317° (NW) 14:54:21 435.950
Gurwin Techsat 1B 25 May 14:48:19 14:53:38 75° 256° (WSW) 14:58:59 435.225
AO-7 25 May 14:48:41 14:56:22 44° 54° (NE) 15:04:05 29.400- 29.500
AIST 2 25 May 14:58:43 15:01:56 22° 116° (ESE) 15:05:10 435.215
AISAT 25 May 15:14:44 15:17:03 14° 306° (NW) 15:19:22 437.250
SPROUT 25 May 15:15:57 15:19:23 24° 298° (WNW) 15:22:47 437.525
SWISSCUBE 25 May 15:20:40 15:25:06 35° 97° (E) 15:29:29 437.505
ITAMSAT 1 25 May 15:21:32 15:26:43 86° 254° (WSW) 15:31:57 435.822/435.867
ITUPSAT 1 25 May 15:25:29 15:29:54 35° 96° (E) 15:34:18 437.325
BEESAT 3 25 May 15:27:14 15:30:29 24° 331° (NNW) 15:33:44 437.485
UKube-1 25 May 15:36:16 15:38:11 13° 307° (NW) 15:40:06 .
AO-85 25 May 15:41:41 15:46:37 87° 229° (SW) 15:51:03 145.980
PCSat 25 May 15:47:40 15:50:58 16° 358° (N) 15:54:15 145.827
TISAT 1 25 May 15:48:49 15:52:34 32° 295° (WNW) 15:56:16 437.305
Cosmos 2491 25 May 15:49:10 15:57:55 64° 73° (ENE) 16:06:34 435.465 / 435.565
BEESAT 25 May 15:50:32 15:55:17 58° 102° (ESE) 16:00:00 436.000
DANDE 25 May 15:57:50 16:02:26 21° 312° (NW) 16:07:48 436.750
YUBILEINY 25 May 15:59:01 16:05:47 26° 77° (ENE) 16:12:32 435.215
JAS-2 25 May 16:07:48 16:09:59 11° 286° (WNW) 16:12:11 435.910
HORYU 2 25 May 16:18:35 16:22:23 29° 63° (ENE) 16:26:12 437.375
BEESAT 2 25 May 16:26:18 16:29:03 18° 339° (NNW) 16:31:48 435.950
CUSAT 1 25 May 16:30:34 16:32:50 11° 327° (NNW) 16:35:10 437.405
STARS 25 May 16:31:50 16:33:50 13° 87° (E) 16:35:49 437.465
Gurwin Techsat 1B 25 May 16:32:10 16:34:32 13° 276° (W) 16:36:55 435.225
AIST 2 25 May 16:36:00 16:40:06 61° 316° (NW) 16:44:13 435.215
AO-7 25 May 16:40:47 16:48:57 60° 256° (WSW) 16:57:13 29.400- 29.500
Cosmos 2504 25 May 16:41:05 16:42:15 10° 66° (ENE) 16:43:26 435.465 / 435.565
CUTE-I 25 May 16:43:01 16:45:11 13° 47° (NE) 16:47:22 437.470
RS-15 25 May 16:58:29 17:05:58 21° 96° (E) 17:13:41 29.354- 29.394
SWISSCUBE 25 May 16:58:31 17:02:54 37° 296° (WNW) 17:07:18 437.505
ITUPSAT 1 25 May 17:03:21 17:07:46 37° 296° (WNW) 17:12:11 437.325
ITAMSAT 1 25 May 17:04:07 17:06:59 15° 274° (W) 17:09:52 435.822/435.867
BEESAT 3 25 May 17:07:42 17:09:30 13° 354° (N) 17:11:19 437.485
NOAA 18 25 May 17:12:33 17:16:52 24° 56° (NE) 17:21:11 137.9125
BRITE-PL 25 May 17:15:09 17:19:25 22° 56° (ENE) 17:23:41 437.365/2234.400
MOZHAYETS 4 25 May 17:22:36 17:27:09 53° 100° (E) 17:31:40
AO-85 25 May 17:23:35 17:26:17 15° 251° (WSW) 17:28:52 145.980
KKS-1 25 May 17:24:21 17:28:48 68° 103° (ESE) 17:33:12 437.445
BEESAT 25 May 17:28:57 17:32:45 24° 301° (WNW) 17:36:33 436.000
PCSat 25 May 17:32:07 17:36:23 23° 25° (NNE) 17:40:37 145.827
Cubesat XI-IV 25 May 17:33:02 17:37:24 27° 58° (ENE) 17:41:47 437.490
NOAA 15 25 May 17:36:03 17:40:54 37° 63° (ENE) 17:45:46 137.62
Cosmos 2491 25 May 17:46:35 17:54:20 37° 277° (W) 18:02:02 435.465 / 435.565
GOMX 1 25 May 17:51:53 17:56:02 22° 58° (ENE) 18:00:04 467.674
YUBILEINY 25 May 17:52:51 18:01:33 85° 280° (W) 18:10:20 435.215
HORYU 2 25 May 17:54:40 17:58:50 40° 261° (W) 18:03:02 437.375
STARS 25 May 18:06:26 18:10:51 87° 284° (WNW) 18:15:13 437.465
BEESAT 2 25 May 18:06:35 18:08:23 13° 3° (N) 18:10:13 435.950
AIST 2 25 May 18:16:22 18:19:22 19° 338° (NNW) 18:22:24 435.215
CUTE-I 25 May 18:19:00 18:24:10 55° 68° (ENE) 18:29:23 437.470
Cosmos 2504 25 May 18:26:38 18:33:34 52° 90° (E) 18:40:56 435.465 / 435.565
HO-68 25 May 18:37:33 18:42:58 24° 47° (NE) 18:48:24 435.675
LilacSat-2 25 May 18:38:34 18:42:20 65° 73° (ENE) 18:46:08 437.200
AO-7 25 May 18:39:35 18:43:37 14° 279° (W) 18:47:42 29.400- 29.500
CUBESAT XI-V 25 May 18:41:38 18:46:10 43° 98° (E) 18:50:40 437.345
BEESAT 3 25 May 18:46:12 18:48:43 16° 18° (NNE) 18:51:15 437.485
BRITE-PL 25 May 18:51:35 18:57:16 84° 256° (WSW) 19:03:00 437.365/2234.400
DOVE 4 25 May 18:51:36 18:56:12 33° 64° (ENE) 19:00:38 437.250
NOAA 18 25 May 18:51:38 18:57:05 71° 256° (WSW) 19:02:34 137.9125
MOZHAYETS 4 25 May 19:00:20 19:04:03 24° 299° (WNW) 19:07:46
KKS-1 25 May 19:01:48 19:04:56 19° 302° (WNW) 19:08:02 437.445
RS-15 25 May 19:04:41 19:15:57 68° 121° (ESE) 19:27:51 29.354- 29.394
CUTE 1.7 + AOD 2 25 May 19:08:54 19:11:08 14° 56° (NE) 19:13:22 437.475
O/OREOS (USA 219) 25 May 19:10:53 19:14:52 30° 49° (NE) 19:18:50 437.305
Cubesat XI-IV 25 May 19:11:53 19:17:09 61° 258° (WSW) 19:22:27 437.490
PCSat 25 May 19:15:23 19:20:49 64° 48° (NE) 19:26:12 145.827
NOAA 15 25 May 19:15:38 19:20:39 41° 262° (W) 19:25:42 137.62
GOMX 1 25 May 19:28:05 19:33:35 78° 257° (WSW) 19:38:59 467.674
AUBIESAT-1 25 May 19:31:38 19:35:28 42° 63° (ENE) 19:39:04 437.475
M-CUBED/EXP-1 PRIME 25 May 19:36:06 19:40:10 56° 65° (ENE) 19:43:56 437.505
COMPASS 1 25 May 19:38:36 19:40:58 15° 57° (ENE) 19:43:21 437.405
CINEMA 3 25 May 19:39:11 19:43:12 29° 64° (ENE) 19:47:05 145.822/145.860
AAUSAT CUBESAT 2 25 May 19:43:37 19:45:45 14° 56° (ENE) 19:47:55 437.432
STARS 25 May 19:44:13 19:46:35 14° 306° (NW) 19:48:56 437.465
BEESAT 2 25 May 19:44:30 19:47:38 21° 27° (NNE) 19:50:47 435.950
YUBILEINY 25 May 19:52:54 19:59:49 25° 306° (NW) 20:06:47 435.215
AIST 2 25 May 19:57:17 19:59:23 13° 2° (N) 20:01:29 435.215
CUTE-I 25 May 20:00:06 20:04:33 27° 267° (W) 20:09:03 437.470
CANX-2 25 May 20:14:34 20:18:41 56° 71° (ENE) 20:22:50 2200.000
LilacSat-2 25 May 20:15:07 20:17:05 14° 272° (W) 20:19:04 437.200
CUBESAT XI-V 25 May 20:19:19 20:23:25 30° 297° (WNW) 20:27:30 437.345
Cosmos 2504 25 May 20:20:26 20:27:13 40° 294° (WNW) 20:34:26 435.465 / 435.565
SEEDS 25 May 20:21:51 20:25:50 45° 69° (ENE) 20:29:51 437.485
HO-68 25 May 20:22:38 20:29:47 82° 70° (ENE) 20:36:58 435.675
BEESAT 3 25 May 20:23:29 20:27:21 46° 41° (NE) 20:31:10 437.485
DOVE 4 25 May 20:28:46 20:33:47 45° 262° (W) 20:38:37 437.250
BRITE-PL 25 May 20:33:01 20:36:33 17° 276° (W) 20:40:07 437.365/2234.400
NOAA 18 25 May 20:36:28 20:38:45 13° 276° (W) 20:41:02 137.9125
Oscar 11 25 May 20:38:27 20:41:42 21° 60° (ENE) 20:44:57 145.826/435.025
CUTE 1.7 + AOD 2 25 May 20:42:09 20:46:22 88° 264° (W) 20:50:38 437.475
CUBEBUG 2 25 May 20:43:21 20:47:23 37° 67° (ENE) 20:51:20 437.445
STRAND 1 25 May 20:43:53 20:48:58 55° 101° (E) 20:54:01 437.568
ZACube-1 25 May 20:48:19 20:51:35 22° 62° (ENE) 20:54:51 437.345
O/OREOS (USA 219) 25 May 20:50:10 20:54:27 45° 250° (WSW) 20:58:43 437.305
Cubesat XI-IV 25 May 20:57:51 20:58:21 10° 278° (W) 20:58:50 437.490
PCSat 25 May 20:59:18 21:03:52 28° 248° (WSW) 21:08:24 145.827
AUBIESAT-1 25 May 21:06:50 21:10:07 23° 259° (W) 21:13:15 437.475
GOMX 1 25 May 21:09:33 21:12:28 14° 276° (W) 21:15:22 467.674
AIST 1 25 May 21:10:39 21:12:59 14° 82° (E) 21:15:18
COMPASS 1 25 May 21:11:50 21:15:59 81° 256° (WSW) 21:20:11 437.405
M-CUBED/EXP-1 PRIME 25 May 21:12:04 21:14:58 18° 261° (W) 21:17:45 437.505
CINEMA 3 25 May 21:15:42 21:20:14 43° 262° (W) 21:24:35 145.822/145.860
UWE-3 25 May 21:16:19 21:20:31 54° 71° (ENE) 21:24:38 435.000/436.395/437.385
AAUSAT CUBESAT 2 25 May 21:16:31 21:20:40 88° 262° (W) 21:24:51 437.432
HUMSAT D 25 May 21:16:51 21:18:45 13° 56° (NE) 21:20:39 437.325/437.525
RS-15 25 May 21:17:29 21:28:58 58° 330° (NNW) 21:41:03 29.354- 29.394
PRISM 25 May 21:18:40 21:22:09 25° 94° (E) 21:25:36 437.425
DANDE 25 May 21:20:25 21:24:01 13° 37° (NE) 21:27:38 436.750
BEESAT 2 25 May 21:22:01 21:26:03 86° 48° (NE) 21:30:03 435.950
FUNcube-1 25 May 21:26:41 21:30:43 45° 69° (ENE) 21:34:42 145.935
AIST 2 25 May 21:35:59 21:39:18 22° 26° (NNE) 21:42:36 435.215
CUSAT 1 25 May 21:45:52 21:52:05 24° 51° (NE) 21:57:53 437.405
GONETS M04 25 May 21:48:08 21:55:23 30° 80° (E) 22:02:36
CANX-2 25 May 21:51:56 21:54:54 18° 270° (W) 21:57:54 2200.000
SEEDS 25 May 21:58:27 22:01:46 23° 268° (W) 22:05:07 437.485
ESTCUBE 1 25 May 22:00:28 22:01:13 10° 50° (NE) 22:01:58 437.505/2401.250
BEESAT 3 25 May 22:01:28 22:04:54 28° 240° (WSW) 22:08:19 437.485
DELFI C3 25 May 22:04:16 22:08:11 63° 73° (ENE) 22:12:10 145.870
HO-68 25 May 22:12:39 22:18:19 25° 270° (W) 22:24:02 435.675
Oscar 11 25 May 22:13:17 22:17:30 55° 260° (W) 22:21:46 145.826/435.025
CUBEBUG 2 25 May 22:20:19 22:24:07 28° 265° (W) 22:27:50 437.445
Cosmos 2504 25 May 22:21:26 22:23:26 11° 322° (NW) 22:25:28 435.465 / 435.565
CUTE 1.7 + AOD 2 25 May 22:21:29 22:22:53 11° 275° (W) 22:24:19 437.475
ZACube-1 25 May 22:23:32 22:27:39 48° 261° (W) 22:31:44 437.345
STRAND 1 25 May 22:23:34 22:27:53 28° 300° (WNW) 22:32:11 437.568
CUBEBUG 1 25 May 22:28:34 22:30:34 13° 53° (NE) 22:32:35 437.445
VELOX 1 25 May 22:29:49 22:31:58 13° 53° (NE) 22:34:08 145.980
DX 1 25 May 22:32:06 22:33:52 12° 52° (NE) 22:35:37 434.975-435.025
AIST 1 25 May 22:45:33 22:49:58 77° 282° (WNW) 22:54:24
HUMSAT D 25 May 22:49:41 22:53:46 88° 87° (E) 22:57:53 437.325/437.525
COMPASS 1 25 May 22:51:54 22:52:17 10° 276° (W) 22:52:41 437.405
PRISM 25 May 22:53:39 22:57:37 41° 293° (WNW) 23:01:33 437.425
UWE-3 25 May 22:54:13 22:57:19 19° 269° (W) 23:00:23 435.000/436.395/437.385
AAUSAT CUBESAT 2 25 May 22:55:38 22:56:50 11° 275° (W) 22:58:01 437.432
BEESAT 2 25 May 23:01:07 23:03:20 14° 247° (WSW) 23:05:32 435.950
DANDE 25 May 23:01:52 23:09:31 38° 61° (ENE) 23:17:02 436.750
AISAT 25 May 23:03:45 23:07:25 25° 61° (ENE) 23:11:05 437.250
FUNcube-1 25 May 23:03:52 23:07:11 22° 268° (W) 23:10:30 145.935
SPROUT 25 May 23:05:28 23:07:02 12° 53° (NE) 23:08:36 437.525
Cosmos 2499 25 May 23:07:24 23:14:16 47° 88° (E) 23:21:40 435.465 / 435.565
AIST 2 25 May 23:14:12 23:18:23 84° 48° (NE) 23:22:32 435.215
50 SAT 25 May 23:14:41 23:17:44 26° 65° (ENE) 23:20:50 437.505
UNISAT 6 25 May 23:16:02 23:19:39 26° 94° (E) 23:23:16 437.425
UKube-1 25 May 23:22:57 23:26:32 26° 62° (ENE) 23:30:08 .
TIGRISAT 25 May 23:24:14 23:27:58 29° 95° (E) 23:31:43 435.000
CUSAT 1 25 May 23:27:35 23:35:42 75° 75° (ENE) 23:42:48 437.405
ISS 25 May 23:31:33 23:34:10 22° 146° (SE) 23:36:47 145.825
ESTCUBE 1 25 May 23:32:40 23:37:05 56° 70° (ENE) 23:41:33 437.505/2401.250
RS-15 25 May 23:33:00 23:44:20 44° 3° (N) 23:56:01 29.354- 29.394
DELFI C3 25 May 23:41:08 23:43:30 15° 271° (W) 23:45:52 145.870
GONETS M04 25 May 23:42:36 23:51:25 77° 283° (WNW) 00:00:14
NANOSAT C BR1 25 May 23:47:33 23:48:41 11° 86° (E) 23:49:48 145.865
ANTELSAT 25 May 23:56:58 00:01:14 61° 101° (ESE) 00:05:31 437.575/2403.000
CUBEBUG 1 26 May 00:01:41 00:06:07 75° 74° (ENE) 00:10:35 437.445
VELOX 1 26 May 00:03:15 00:07:44 77° 71° (ENE) 00:12:12 145.980
DX 1 26 May 00:04:55 00:09:17 71° 72° (ENE) 00:13:41 434.975-435.025
DUCHIFAT 1 26 May 00:25:19 00:28:44 24° 93° (E) 00:32:07 145.980
AIST 1 26 May 00:26:45 00:28:24 12° 302° (WNW) 00:30:03
HUMSAT D 26 May 00:28:45 00:30:03 11° 274° (W) 00:31:21 437.325/437.525
SPROUT 26 May 00:37:57 00:42:14 71° 74° (ENE) 00:46:32 437.525
AISAT 26 May 00:39:20 00:43:40 48° 260° (W) 00:48:02 437.250
DANDE 26 May 00:44:40 00:53:01 71° 263° (W) 01:01:02 436.750
50 SAT 26 May 00:48:09 00:51:25 31° 264° (W) 00:54:43 437.505
BUGSAT 1 26 May 00:52:00 00:55:11 22° 92° (E) 00:58:20 437.445
UNISAT 6 26 May 00:52:31 00:56:32 41° 292° (WNW) 01:00:35 437.425
AIST 2 26 May 00:53:49 00:56:19 16° 247° (WSW) 00:58:48 435.215
SWISSCUBE 26 May 00:57:28 00:59:55 14° 52° (NE) 01:02:22 437.505
UKube-1 26 May 00:58:15 01:02:24 45° 261° (W) 01:06:36 .
Cosmos 2499 26 May 01:00:32 01:07:30 45° 293° (WNW) 01:15:01 435.465 / 435.565
POPSAT HIP 1 26 May 01:00:42 01:04:52 56° 101° (E) 01:08:58 437.405
TIGRISAT 26 May 01:00:50 01:04:46 36° 293° (WNW) 01:08:42 435.000
QB50P1 26 May 01:01:18 01:05:28 57° 101° (E) 01:09:36 145.935-145.965
ITUPSAT 1 26 May 01:02:33 01:05:00 14° 52° (NE) 01:07:27 437.325
QB50P2 26 May 01:02:53 01:07:05 63° 102° (ESE) 01:11:15 145.880/145.840
POLYITAN 1 26 May 01:05:19 01:09:32 64° 103° (ESE) 01:13:41 437.675
ISS 26 May 01:07:00 01:10:17 70° 164° (SSE) 01:13:32 145.825
TISAT 1 26 May 01:09:37 01:13:41 48° 69° (ENE) 01:17:46 437.305
CUSAT 1 26 May 01:10:28 01:17:07 30° 277° (W) 01:23:07 437.405
ESTCUBE 1 26 May 01:10:49 01:14:15 21° 269° (W) 01:17:42 437.505/2401.250
JAS-2 26 May 01:20:06 01:26:27 28° 87° (E) 01:32:20 435.910
NANOSAT C BR1 26 May 01:20:52 01:25:07 85° 109° (ESE) 01:29:18 145.865
BEESAT 26 May 01:26:04 01:29:36 21° 57° (ENE) 01:33:07 436.000
ANTELSAT 26 May 01:34:32 01:37:36 19° 300° (WNW) 01:40:40 437.575/2403.000
CUBEBUG 1 26 May 01:40:18 01:42:56 16° 272° (W) 01:45:38 437.445
VELOX 1 26 May 01:42:08 01:44:45 15° 272° (W) 01:47:23 145.980
DX 1 26 May 01:43:13 01:45:58 16° 271° (W) 01:48:45 434.975-435.025
GONETS M04 26 May 01:43:18 01:49:56 23° 308° (NW) 01:56:36
RS-15 26 May 01:47:21 01:59:29 64° 35° (NE) 02:11:46 29.354- 29.394
YUBILEINY 26 May 02:00:02 02:06:05 20° 48° (NE) 02:12:06 435.215
DUCHIFAT 1 26 May 02:00:39 02:04:37 42° 292° (WNW) 02:08:34 145.980
SO-50 26 May 02:14:30 02:19:18 55° 125° (SE) 02:24:05 436.795
SPROUT 26 May 02:16:07 02:18:42 15° 272° (W) 02:21:16 437.525
BUGSAT 1 26 May 02:26:54 02:30:48 44° 292° (WNW) 02:34:38 437.445
DANDE 26 May 02:28:59 02:34:33 20° 284° (WNW) 02:40:01 436.750
SWISSCUBE 26 May 02:32:12 02:36:56 74° 72° (ENE) 02:41:43 437.505
POPSAT HIP 1 26 May 02:37:13 02:40:19 20° 300° (WNW) 02:43:25 437.405
ITUPSAT 1 26 May 02:37:18 02:42:03 74° 72° (ENE) 02:46:50 437.325
QB50P1 26 May 02:37:51 02:40:55 20° 300° (WNW) 02:43:58 145.935-145.965
QB50P2 26 May 02:39:33 02:42:30 19° 301° (WNW) 02:45:26 145.880/145.840
POLYITAN 1 26 May 02:42:01 02:44:55 18° 301° (WNW) 02:47:49 437.675
ISS 26 May 02:43:26 02:46:43 90° 202° (SSW) 02:49:59 145.825
TISAT 1 26 May 02:46:19 02:49:36 22° 268° (W) 02:52:54 437.305
PHONESAT 2.4 26 May 02:46:44 02:47:30 11° 186° (S) 02:48:15 2401.200-2431.200
Oscar 19 26 May 02:51:26 02:56:31 52° 100° (E) 03:01:31 437.125/150
KKS-1 26 May 02:52:35 02:55:45 19° 58° (ENE) 02:58:55 437.445
MOZHAYETS 4 26 May 02:54:52 02:57:34 16° 55° (NE) 03:00:17
NANOSAT C BR1 26 May 02:57:58 03:00:16 15° 304° (NW) 03:02:34 145.865
Gurwin Techsat 1B 26 May 02:59:14 03:03:53 29° 94° (E) 03:08:29 435.225
Cosmos 2499 26 May 03:00:11 03:03:18 13° 321° (NW) 03:06:30 435.465 / 435.565
BEESAT 26 May 03:02:12 03:06:56 69° 257° (WSW) 03:11:43 436.000
JAS-2 26 May 03:04:33 03:12:19 78° 289° (WNW) 03:19:20 435.910
Cosmos 2491 26 May 03:06:12 03:10:27 15° 68° (ENE) 03:14:42 435.465 / 435.565
ITAMSAT 1 26 May 03:29:22 03:33:27 23° 91° (E) 03:37:31 435.822/435.867
STARS 26 May 03:32:54 03:36:26 24° 61° (ENE) 03:39:57 437.465
SO-50 26 May 03:55:27 04:00:02 38° 326° (NW) 04:04:35 436.795
YUBILEINY 26 May 03:56:12 04:04:55 66° 74° (ENE) 04:13:39 435.215
RS-15 26 May 04:00:18 04:12:11 60° 242° (WSW) 04:24:07 29.354- 29.394
Cosmos 2504 26 May 04:11:05 04:18:11 31° 61° (ENE) 04:25:37 435.465 / 435.565
SWISSCUBE 26 May 04:12:09 04:15:17 17° 271° (W) 04:18:27 437.505
CUBESAT XI-V 26 May 04:15:34 04:17:57 14° 53° (NE) 04:20:21 437.345
ITUPSAT 1 26 May 04:17:17 04:20:27 17° 271° (W) 04:23:37 437.325
ISS 26 May 04:19:55 04:23:02 41° 204° (SSW) 04:26:08 145.825
KKS-1 26 May 04:27:25 04:31:53 69° 257° (WSW) 04:36:23 437.445
MOZHAYETS 4 26 May 04:29:33 04:34:07 89° 254° (WSW) 04:38:44
Oscar 19 26 May 04:31:11 04:35:37 29° 300° (WNW) 04:40:01 437.125/150
AO-7 26 May 04:36:03 04:43:36 36° 95° (E) 04:51:06 29.400- 29.500
Gurwin Techsat 1B 26 May 04:38:55 04:44:05 51° 293° (WNW) 04:49:12 435.225
BEESAT 26 May 04:45:06 04:45:40 10° 276° (W) 04:46:13 436.000
JAS-2 26 May 04:50:21 04:56:11 24° 312° (NW) 05:01:43 435.910
Cosmos 2491 26 May 04:56:44 05:05:20 60° 91° (E) 05:13:56 435.465 / 435.565
ITAMSAT 1 26 May 05:08:12 05:13:23 65° 291° (WNW) 05:18:33 435.822/435.867
STARS 26 May 05:08:15 05:12:32 50° 260° (W) 05:16:52 437.465
SO-50 26 May 05:38:19 05:41:47 19° 350° (N) 05:45:13 436.795
HORYU 2 26 May 05:40:06 05:43:48 25° 94° (E) 05:47:29 437.375
CUBESAT XI-V 26 May 05:49:54 05:54:35 76° 73° (ENE) 05:59:19 437.345
YUBILEINY 26 May 05:53:35 06:01:14 36° 277° (W) 06:08:53 435.215
ISS 26 May 05:58:05 05:58:49 11° 223° (SW) 05:59:32 145.825
Cosmos 2504 26 May 06:04:12 06:12:27 79° 263° (W) 06:21:12 435.465 / 435.565
AO-85 26 May 06:04:59 06:05:43 10° 105° (ESE) 06:06:26 145.980
MOZHAYETS 4 26 May 06:09:53 06:12:00 13° 274° (W) 06:14:07
Gurwin Techsat 1B 26 May 06:21:10 06:22:54 12° 314° (NW) 06:24:38 435.225
